LPE2510 SEQM-SVMI

Flight info

Callsign LPE2510
Flight time N/A
Altitude 39000
Route ARNOK3A ARNOK UP533 PBL ALDAK1
Aircraft B763/H-SDE3FGHIM3RWXY/LB1

Departure

Time 2026-04-28 01:19
Airport Mariscal Sucre International Airport (SEQM)

Arrival

Time N/A
Airport Maiquetía Simón Bolívar International Airport (SVMI)
Time Latitude Longitude Altitude Speed Heading
2026-04-28 00:43 -0.12314 -78.35933 7859 ft 0 kts 267°
2026-04-28 01:06 -0.12313 -78.35922 7859 ft 2 kts 268°
2026-04-28 01:07 -0.12313 -78.35907 7861 ft 2 kts 268°
2026-04-28 01:07 -0.12312 -78.35897 7861 ft 2 kts 266°
2026-04-28 01:07 -0.12309 -78.35882 7862 ft 2 kts 245°
2026-04-28 01:07 -0.12304 -78.35873 7863 ft 2 kts 235°
2026-04-28 01:08 -0.12290 -78.35858 7863 ft 2 kts 213°
2026-04-28 01:08 -0.12276 -78.35851 7863 ft 2 kts 196°
2026-04-28 01:08 -0.12261 -78.35849 7862 ft 1 kts 180°
2026-04-28 01:08 -0.12256 -78.35849 7862 ft 0 kts 176°
2026-04-28 01:11 -0.12257 -78.35849 7861 ft 0 kts 176°
2026-04-28 01:12 -0.12262 -78.35848 7862 ft 3 kts 176°
2026-04-28 01:12 -0.12310 -78.35845 7865 ft 10 kts 176°
2026-04-28 01:12 -0.12379 -78.35842 7869 ft 2 kts 179°
2026-04-28 01:12 -0.12440 -78.35841 7873 ft 14 kts 178°
2026-04-28 01:13 -0.12579 -78.35834 7880 ft 25 kts 177°
2026-04-28 01:13 -0.12694 -78.35748 7891 ft 9 kts 88°
2026-04-28 01:13 -0.12689 -78.35663 7898 ft 14 kts 89°
2026-04-28 01:14 -0.12754 -78.35599 7907 ft 15 kts 171°
2026-04-28 01:14 -0.12844 -78.35596 7912 ft 10 kts 178°
2026-04-28 01:14 -0.12939 -78.35591 7918 ft 15 kts 176°
2026-04-28 01:14 -0.13071 -78.35586 7925 ft 22 kts 177°
2026-04-28 01:15 -0.13248 -78.35578 7933 ft 28 kts 177°
2026-04-28 01:15 -0.13470 -78.35570 7942 ft 35 kts 177°
2026-04-28 01:15 -0.13739 -78.35559 7954 ft 38 kts 178°
2026-04-28 01:15 -0.13966 -78.35549 7965 ft 23 kts 179°
2026-04-28 01:16 -0.14103 -78.35544 7972 ft 15 kts 178°
2026-04-28 01:16 -0.14191 -78.35538 7975 ft 10 kts 168°
2026-04-28 01:16 -0.14233 -78.35519 7979 ft 4 kts 137°
2026-04-28 01:16 -0.14250 -78.35490 7983 ft 5 kts 110°
2026-04-28 01:17 -0.14255 -78.35438 7988 ft 9 kts 88°
2026-04-28 01:17 -0.14243 -78.35375 7994 ft 8 kts 53°
2026-04-28 01:17 -0.14214 -78.35365 7994 ft 0 kts 359°
2026-04-28 01:17 -0.14170 -78.35366 7992 ft 24 kts 359°
2026-04-28 01:18 -0.13801 -78.35383 7975 ft 79 kts 358°
2026-04-28 01:18 -0.13073 -78.35412 7937 ft 128 kts 357°
2026-04-28 01:18 -0.12008 -78.35460 7861 ft 173 kts 358°
2026-04-28 01:18 -0.10705 -78.35524 8044 ft 193 kts 356°
2026-04-28 01:19 -0.09329 -78.35622 8505 ft 201 kts 356°
2026-04-28 01:19 -0.08370 -78.35689 8822 ft 207 kts 356°
2026-04-28 01:19 -0.06444 -78.35819 9641 ft 206 kts 356°
2026-04-28 01:19 -0.05031 -78.35936 10327 ft 201 kts 355°
2026-04-28 01:20 -0.03638 -78.36200 10723 ft 211 kts 334°
2026-04-28 01:20 -0.02530 -78.37176 11146 ft 218 kts 298°
2026-04-28 01:20 -0.02213 -78.38635 11641 ft 221 kts 261°
2026-04-28 01:20 -0.02826 -78.40031 12101 ft 223 kts 226°
2026-04-28 01:21 -0.04145 -78.40859 12521 ft 226 kts 191°
2026-04-28 01:21 -0.05697 -78.40995 13111 ft 220 kts 180°
2026-04-28 01:21 -0.07197 -78.41090 13696 ft 217 kts 184°
2026-04-28 01:21 -0.08766 -78.41283 13958 ft 230 kts 185°
2026-04-28 01:22 -0.10361 -78.41488 14424 ft 234 kts 189°
2026-04-28 01:22 -0.11988 -78.41834 14828 ft 241 kts 191°
2026-04-28 01:22 -0.13667 -78.42209 15257 ft 247 kts 191°
2026-04-28 01:22 -0.15363 -78.42595 15704 ft 251 kts 190°
2026-04-28 01:23 -0.17078 -78.42979 16125 ft 257 kts 190°
2026-04-28 01:23 -0.18919 -78.43349 16224 ft 280 kts 188°
2026-04-28 01:23 -0.20929 -78.43791 16186 ft 305 kts 192°
2026-04-28 01:23 -0.23072 -78.44302 16367 ft 321 kts 191°
2026-04-28 01:24 -0.25338 -78.44819 16450 ft 343 kts 191°
2026-04-28 01:24 -0.27667 -78.45345 17231 ft 335 kts 191°
2026-04-28 01:24 -0.29911 -78.45850 17931 ft 333 kts 190°
2026-04-28 01:24 -0.32274 -78.46146 18324 ft 338 kts 178°
2026-04-28 01:25 -0.34617 -78.46139 18888 ft 338 kts 178°
2026-04-28 01:25 -0.36982 -78.46146 19379 ft 341 kts 177°
2026-04-28 01:25 -0.39376 -78.46143 19880 ft 344 kts 177°
2026-04-28 01:25 -0.41804 -78.46136 20331 ft 347 kts 177°
2026-04-28 01:26 -0.44252 -78.46126 20802 ft 350 kts 177°
2026-04-28 01:26 -0.46684 -78.46116 21267 ft 352 kts 176°
2026-04-28 01:26 -0.49174 -78.46104 21709 ft 355 kts 177°
2026-04-28 01:26 -0.51664 -78.46093 22114 ft 358 kts 177°
2026-04-28 01:27 -0.54180 -78.46081 22532 ft 360 kts 177°
2026-04-28 01:27 -0.56702 -78.46069 22956 ft 363 kts 177°
2026-04-28 01:27 -0.59258 -78.46056 23383 ft 365 kts 177°
2026-04-28 01:27 -0.61836 -78.46022 23823 ft 367 kts 173°
2026-04-28 01:28 -0.64322 -78.45521 24222 ft 366 kts 156°
2026-04-28 01:28 -0.66563 -78.44340 24636 ft 365 kts 140°
2026-04-28 01:28 -0.68388 -78.42548 25073 ft 364 kts 124°
2026-04-28 01:28 -0.69602 -78.40356 25453 ft 365 kts 108°
2026-04-28 01:29 -0.70150 -78.37856 25802 ft 368 kts 92°
2026-04-28 01:29 -0.69958 -78.35297 26161 ft 371 kts 76°
2026-04-28 01:29 -0.69039 -78.32880 26556 ft 374 kts 60°
2026-04-28 01:29 -0.67488 -78.30803 26860 ft 380 kts 45°
2026-04-28 01:30 -0.65362 -78.29181 27203 ft 385 kts 28°
2026-04-28 01:30 -0.62844 -78.28184 27546 ft 390 kts 13°
2026-04-28 01:30 -0.60114 -78.27889 27876 ft 394 kts 357°
2026-04-28 01:30 -0.57364 -78.28188 28242 ft 397 kts 352°
2026-04-28 01:31 -0.54627 -78.28555 28611 ft 399 kts 356°
2026-04-28 01:31 -0.51832 -78.28503 28933 ft 400 kts 11°
2026-04-28 01:31 -0.49134 -78.27731 29315 ft 400 kts 25°
2026-04-28 01:31 -0.46633 -78.26450 29678 ft 402 kts 27°
2026-04-28 01:32 -0.44042 -78.25326 30041 ft 405 kts 21°
2026-04-28 01:32 -0.41396 -78.24376 30433 ft 406 kts 19°
2026-04-28 01:32 -0.38686 -78.23482 30781 ft 409 kts 18°
2026-04-28 01:32 -0.35939 -78.22618 31095 ft 412 kts 18°
2026-04-28 01:33 -0.33170 -78.21773 31454 ft 414 kts 17°
2026-04-28 01:33 -0.30417 -78.20946 31793 ft 415 kts 17°
2026-04-28 01:33 -0.27616 -78.20111 32130 ft 418 kts 17°
2026-04-28 01:33 -0.24785 -78.19271 32478 ft 420 kts 17°
2026-04-28 01:34 -0.21968 -78.18437 32864 ft 421 kts 17°
2026-04-28 01:34 -0.19144 -78.17602 33196 ft 424 kts 17°
2026-04-28 01:34 -0.16311 -78.16766 33554 ft 426 kts 17°
2026-04-28 01:34 -0.13426 -78.15913 33933 ft 427 kts 17°
2026-04-28 01:35 -0.10566 -78.15069 34302 ft 429 kts 17°
2026-04-28 01:35 -0.07694 -78.14220 34654 ft 430 kts 17°
2026-04-28 01:35 -0.04795 -78.13364 35024 ft 432 kts 16°
2026-04-28 01:35 -0.01901 -78.12510 35400 ft 433 kts 16°
2026-04-28 01:36 0.01035 -78.11643 35739 ft 435 kts 16°
2026-04-28 01:36 0.01237 -78.11583 35755 ft 435 kts 16°
2026-04-28 01:36 0.03118 -78.11028 35930 ft 437 kts 16°
2026-04-28 01:36 0.04958 -78.10484 36200 ft 437 kts 16°
2026-04-28 01:37 0.07888 -78.09619 36485 ft 440 kts 16°
2026-04-28 01:37 0.10880 -78.08736 36753 ft 442 kts 16°
2026-04-28 01:37 0.13830 -78.07865 37079 ft 444 kts 16°
2026-04-28 01:37 0.16808 -78.06986 37340 ft 446 kts 16°
2026-04-28 01:38 0.19839 -78.06091 37661 ft 448 kts 16°
2026-04-28 01:38 0.22824 -78.05209 37751 ft 445 kts 16°
2026-04-28 01:38 0.28818 -78.03439 37767 ft 448 kts 16°
2026-04-28 01:39 0.34842 -78.01660 37709 ft 452 kts 16°
2026-04-28 01:39 0.39933 -78.00157 37653 ft 451 kts 16°
2026-04-28 01:40 0.46972 -77.98078 37586 ft 449 kts 16°
2026-04-28 01:40 0.51971 -77.96602 37572 ft 447 kts 16°
2026-04-28 01:41 0.58021 -77.94815 37593 ft 454 kts 16°
2026-04-28 01:41 0.65214 -77.92691 37626 ft 463 kts 16°
2026-04-28 01:42 0.71450 -77.90849 37631 ft 465 kts 16°
2026-04-28 01:42 0.77686 -77.88923 37631 ft 463 kts 22°
2026-04-28 01:43 0.83233 -77.85630 37579 ft 466 kts 40°
2026-04-28 01:43 0.88020 -77.81258 37538 ft 466 kts 43°
2026-04-28 01:44 0.92779 -77.76805 37517 ft 466 kts 43°
2026-04-28 01:44 0.97514 -77.72341 37503 ft 467 kts 43°
2026-04-28 01:45 1.02262 -77.67856 37485 ft 468 kts 43°
2026-04-28 01:45 1.07033 -77.63348 37462 ft 467 kts 43°
2026-04-28 01:46 1.11771 -77.58868 37423 ft 467 kts 43°
2026-04-28 01:46 1.16522 -77.54377 37386 ft 469 kts 43°
2026-04-28 01:47 1.21285 -77.49874 37366 ft 470 kts 43°
2026-04-28 01:47 1.26036 -77.45382 37328 ft 470 kts 43°
2026-04-28 01:48 1.30795 -77.40882 37320 ft 470 kts 43°
2026-04-28 01:48 1.35590 -77.36349 37250 ft 472 kts 43°
2026-04-28 01:49 1.40377 -77.31821 37236 ft 472 kts 43°
2026-04-28 01:49 1.45156 -77.27302 37249 ft 471 kts 43°
2026-04-28 01:50 1.49936 -77.22781 37252 ft 473 kts 43°
2026-04-28 01:50 1.54746 -77.18232 37294 ft 474 kts 43°
2026-04-28 01:51 1.59535 -77.13702 37313 ft 474 kts 43°
2026-04-28 01:51 1.64370 -77.09128 37322 ft 474 kts 43°
2026-04-28 01:52 1.69185 -77.04574 37335 ft 475 kts 43°
2026-04-28 01:52 1.73975 -77.00042 37351 ft 474 kts 43°
2026-04-28 01:53 1.78805 -76.95471 37311 ft 476 kts 43°
2026-04-28 01:53 1.83625 -76.90911 37316 ft 477 kts 43°
2026-04-28 01:54 1.88468 -76.86329 37342 ft 476 kts 43°
2026-04-28 01:54 1.93292 -76.81763 37368 ft 476 kts 43°
2026-04-28 01:55 1.98142 -76.77173 37401 ft 476 kts 43°
2026-04-28 01:55 2.02956 -76.72616 37429 ft 476 kts 43°
2026-04-28 01:56 2.07793 -76.68037 37409 ft 476 kts 43°
2026-04-28 01:56 2.11007 -76.64995 37379 ft 476 kts 43°